Time,TemperatureF,DewpointF,PressureIn,WindDirection,WindDirectionDegrees,WindSpeedMPH,WindSpeedGustMPH,Humidity,HourlyPrecipIn,Conditions,Clouds,dailyrainin,SoftwareType,DateUTC
2013-06-01 00:00:00,76.0,70.5,29.85,South,180,5.0,16.0,83,0.00,,,0.00,Rainwise IP-100,2013-06-01 05:00:00,
2013-06-01 00:05:00,76.0,71.0,29.86,SW,225,4.0,10.0,84,0.00,,,0.00,Rainwise IP-100,2013-06-01 05:05:00,
2013-06-01 00:10:00,76.0,70.5,29.86,South,180,6.0,13.0,83,0.00,,,0.00,Rainwise IP-100,2013-06-01 05:10:00,
2013-06-01 00:16:00,76.0,70.5,29.85,SSW,202,2.0,12.0,83,0.00,,,0.00,Rainwise IP-100,2013-06-01 05:16:00,
2013-06-01 00:21:00,76.0,70.0,29.85,SW,225,5.0,14.0,82,0.00,,,0.00,Rainwise IP-100,2013-06-01 05:21:00,
2013-06-01 00:26:00,76.0,70.0,29.85,SSW,202,2.0,11.0,82,0.00,,,0.00,Rainwise IP-100,2013-06-01 05:26:00,
2013-06-01 00:31:00,76.0,70.0,29.85,SW,225,4.0,12.0,82,0.00,,,0.00,Rainwise IP-100,2013-06-01 05:31:00,
2013-06-01 00:36:00,77.0,71.0,29.84,SE,135,5.0,16.0,81,0.00,,,0.00,Rainwise IP-100,2013-06-01 05:36:00,
2013-06-01 00:41:00,77.0,71.0,29.84,SSE,157,10.0,17.0,81,0.00,,,0.00,Rainwise IP-100,2013-06-01 05:41:00,
2013-06-01 00:46:00,76.0,69.7,29.84,SW,225,5.0,15.0,81,0.00,,,0.00,Rainwise IP-100,2013-06-01 05:46:00,
2013-06-01 00:51:00,76.0,69.7,29.84,SW,225,6.0,17.0,81,0.00,,,0.00,Rainwise IP-100,2013-06-01 05:51:00,
2013-06-01 00:56:00,77.0,71.0,29.85,South,180,2.0,16.0,81,0.00,,,0.00,Rainwise IP-100,2013-06-01 05:56:00,
2013-06-01 01:01:00,77.0,71.0,29.85,SW,225,7.0,13.0,81,0.00,,,0.00,Rainwise IP-100,2013-06-01 06:01:00,
2013-06-01 01:06:00,76.0,69.7,29.84,West,270,4.0,15.0,81,0.00,,,0.00,Rainwise IP-100,2013-06-01 06:06:00,
2013-06-01 01:11:00,76.0,69.7,29.84,SW,225,7.0,15.0,81,0.00,,,0.00,Rainwise IP-100,2013-06-01 06:11:00,
2013-06-01 01:16:00,76.0,69.7,29.84,SSE,157,2.0,13.0,81,0.00,,,0.00,Rainwise IP-100,2013-06-01 06:16:00,
2013-06-01 01:21:00,76.0,69.7,29.84,SSE,157,5.0,20.0,81,0.06,,,0.01,Rainwise IP-100,2013-06-01 06:21:00,
2013-06-01 01:26:00,76.0,69.7,29.85,West,270,9.0,16.0,81,0.06,,,0.01,Rainwise IP-100,2013-06-01 06:26:00,
2013-06-01 01:31:00,76.0,69.7,29.85,West,270,7.0,13.0,81,0.00,,,0.01,Rainwise IP-100,2013-06-01 06:31:00,
2013-06-01 01:36:00,76.0,69.7,29.84,SW,225,0.0,13.0,81,0.00,,,0.01,Rainwise IP-100,2013-06-01 06:36:00,
2013-06-01 01:41:00,76.0,70.0,29.84,SSW,202,6.0,12.0,82,0.00,,,0.01,Rainwise IP-100,2013-06-01 06:41:00,
2013-06-01 01:46:00,76.0,69.7,29.85,South,180,7.0,14.0,81,0.00,,,0.01,Rainwise IP-100,2013-06-01 06:46:00,
2013-06-01 01:51:00,76.0,69.7,29.85,SW,225,13.0,15.0,81,0.00,,,0.01,Rainwise IP-100,2013-06-01 06:51:00,
2013-06-01 01:56:00,76.0,70.0,29.84,SE,135,5.0,16.0,82,0.00,,,0.01,Rainwise IP-100,2013-06-01 06:56:00,
2013-06-01 02:01:00,76.0,70.0,29.84,SE,135,10.0,13.0,82,0.00,,,0.01,Rainwise IP-100,2013-06-01 07:01:00,
2013-06-01 02:06:00,76.0,70.0,29.84,West,270,6.0,16.0,82,0.00,,,0.01,Rainwise IP-100,2013-06-01 07:06:00,
2013-06-01 02:11:00,76.0,69.7,29.84,WSW,247,5.0,14.0,81,0.00,,,0.01,Rainwise IP-100,2013-06-01 07:11:00,
2013-06-01 02:16:00,76.0,69.7,29.84,SSE,157,7.0,13.0,81,0.00,,,0.01,Rainwise IP-100,2013-06-01 07:16:00,
2013-06-01 02:21:00,76.0,70.0,29.84,SW,225,5.0,16.0,82,0.00,,,0.01,Rainwise IP-100,2013-06-01 07:21:00,
2013-06-01 02:26:00,76.0,69.7,29.84,SSW,202,3.0,16.0,81,0.00,,,0.01,Rainwise IP-100,2013-06-01 07:26:00,
2013-06-01 02:31:00,76.0,69.7,29.84,South,180,10.0,16.0,81,0.00,,,0.01,Rainwise IP-100,2013-06-01 07:31:00,
2013-06-01 02:36:00,76.0,69.7,29.84,South,180,2.0,15.0,81,0.00,,,0.01,Rainwise IP-100,2013-06-01 07:36:00,
2013-06-01 02:41:00,76.0,69.7,29.84,SW,225,10.0,11.0,81,0.00,,,0.01,Rainwise IP-100,2013-06-01 07:41:00,
2013-06-01 02:46:00,76.0,69.3,29.83,SW,225,7.0,18.0,80,0.00,,,0.01,Rainwise IP-100,2013-06-01 07:46:00,
2013-06-01 02:51:00,76.0,69.7,29.83,South,180,17.0,17.0,81,0.00,,,0.01,Rainwise IP-100,2013-06-01 07:51:00,
2013-06-01 02:56:00,76.0,69.7,29.83,West,270,3.0,19.0,81,0.00,,,0.01,Rainwise IP-100,2013-06-01 07:56:00,
2013-06-01 03:01:00,76.0,69.7,29.83,SW,225,5.0,12.0,81,0.00,,,0.01,Rainwise IP-100,2013-06-01 08:01:00,
2013-06-01 03:06:00,76.0,69.7,29.84,South,180,4.0,13.0,81,0.00,,,0.01,Rainwise IP-100,2013-06-01 08:06:00,
2013-06-01 03:11:00,76.0,69.7,29.84,South,180,7.0,12.0,81,0.00,,,0.01,Rainwise IP-100,2013-06-01 08:11:00,
2013-06-01 03:16:00,76.0,69.7,29.84,SW,225,5.0,11.0,81,0.00,,,0.01,Rainwise IP-100,2013-06-01 08:16:00,
2013-06-01 03:21:00,76.0,70.0,29.84,SE,135,5.0,9.0,82,0.00,,,0.01,Rainwise IP-100,2013-06-01 08:21:00,
2013-06-01 03:26:00,76.0,69.7,29.84,SW,225,5.0,17.0,81,0.00,,,0.01,Rainwise IP-100,2013-06-01 08:26:00,
2013-06-01 03:31:00,76.0,70.0,29.84,WNW,292,4.0,11.0,82,0.00,,,0.01,Rainwise IP-100,2013-06-01 08:31:00,
2013-06-01 03:36:00,76.0,70.0,29.85,NW,315,8.0,13.0,82,0.00,,,0.01,Rainwise IP-100,2013-06-01 08:36:00,
2013-06-01 03:41:00,73.0,64.0,29.91,NE,45,5.0,12.0,73,0.00,,,0.01,Rainwise IP-100,2013-06-01 08:41:00,
2013-06-01 03:46:00,70.0,63.0,29.91,North,360,5.0,13.0,78,0.00,,,0.01,Rainwise IP-100,2013-06-01 08:46:00,
2013-06-01 03:51:00,68.0,64.0,29.94,NW,315,7.0,12.0,87,0.00,,,0.01,Rainwise IP-100,2013-06-01 08:51:00,
2013-06-01 03:58:00,66.0,63.5,29.94,NE,45,5.0,12.0,92,0.00,,,0.01,Rainwise IP-100,2013-06-01 08:58:00,
2013-06-01 04:03:00,65.0,63.5,29.95,WSW,247,1.0,8.0,95,0.00,,,0.01,Rainwise IP-100,2013-06-01 09:03:00,
2013-06-01 04:08:00,65.0,64.0,29.95,North,360,3.0,9.0,97,0.00,,,0.01,Rainwise IP-100,2013-06-01 09:08:00,
2013-06-01 04:13:00,64.0,63.0,29.94,NE,45,0.0,8.0,97,0.00,,,0.01,Rainwise IP-100,2013-06-01 09:13:00,
2013-06-01 04:18:00,64.0,63.0,29.94,NE,45,6.0,8.0,97,0.00,,,0.01,Rainwise IP-100,2013-06-01 09:18:00,
2013-06-01 04:23:00,64.0,63.5,29.92,NE,45,5.0,9.0,98,0.00,,,0.01,Rainwise IP-100,2013-06-01 09:23:00,
2013-06-01 04:29:00,64.0,63.5,29.92,NNE,22,10.0,12.0,98,0.00,,,0.01,Rainwise IP-100,2013-06-01 09:29:00,
2013-06-01 04:34:00,64.0,63.5,29.94,ESE,112,10.0,10.0,98,0.00,,,0.01,Rainwise IP-100,2013-06-01 09:34:00,
2013-06-01 04:40:00,63.0,62.5,29.94,NE,45,7.0,11.0,98,0.00,,,0.01,Rainwise IP-100,2013-06-01 09:40:00,
2013-06-01 04:45:00,63.0,62.5,29.93,NE,45,8.0,11.0,98,0.00,,,0.01,Rainwise IP-100,2013-06-01 09:45:00,
2013-06-01 04:50:00,63.0,62.5,29.93,NE,45,6.0,8.0,98,0.00,,,0.01,Rainwise IP-100,2013-06-01 09:50:00,
2013-06-01 04:55:00,63.0,62.5,29.93,ENE,67,0.0,9.0,98,0.00,,,0.01,Rainwise IP-100,2013-06-01 09:55:00,
2013-06-01 05:00:00,63.0,62.5,29.93,ESE,112,4.0,7.0,98,0.00,,,0.01,Rainwise IP-100,2013-06-01 10:00:00,
2013-06-01 05:05:00,63.0,62.5,29.92,NE,45,4.0,12.0,98,0.00,,,0.01,Rainwise IP-100,2013-06-01 10:05:00,
2013-06-01 05:10:00,63.0,62.5,29.92,East,90,6.0,10.0,98,0.00,,,0.01,Rainwise IP-100,2013-06-01 10:10:00,
2013-06-01 05:15:00,63.0,62.5,29.91,ENE,67,7.0,13.0,98,0.00,,,0.01,Rainwise IP-100,2013-06-01 10:15:00,
2013-06-01 05:20:00,63.0,62.5,29.91,NE,45,10.0,12.0,98,0.00,,,0.01,Rainwise IP-100,2013-06-01 10:20:00,
2013-06-01 05:25:00,63.0,62.5,29.92,NE,45,5.0,12.0,98,0.00,,,0.01,Rainwise IP-100,2013-06-01 10:25:00,
2013-06-01 05:30:00,63.0,62.5,29.92,East,90,2.0,11.0,98,0.00,,,0.01,Rainwise IP-100,2013-06-01 10:30:00,
2013-06-01 05:35:00,63.0,62.5,29.92,ESE,112,7.0,10.0,98,0.00,,,0.01,Rainwise IP-100,2013-06-01 10:35:00,
2013-06-01 05:40:00,63.0,62.5,29.92,NE,45,9.0,12.0,98,0.00,,,0.01,Rainwise IP-100,2013-06-01 10:40:00,
2013-06-01 05:48:00,63.0,62.5,29.92,East,90,7.0,13.0,98,0.00,,,0.00,Rainwise IP-100,2013-06-01 10:48:00,
2013-06-01 05:53:00,63.0,62.5,29.92,East,90,10.0,15.0,98,0.00,,,0.00,Rainwise IP-100,2013-06-01 10:53:00,
2013-06-01 05:58:00,63.0,62.5,29.92,East,90,2.0,15.0,98,0.00,,,0.00,Rainwise IP-100,2013-06-01 10:58:00,
2013-06-01 06:06:00,63.0,62.5,29.92,ENE,67,5.0,13.0,98,0.00,,,0.00,Rainwise IP-100,2013-06-01 11:06:00,
2013-06-01 06:12:00,63.0,62.5,29.93,East,90,6.0,13.0,98,0.00,,,0.00,Rainwise IP-100,2013-06-01 11:12:00,
2013-06-01 06:19:00,63.0,62.5,29.93,East,90,3.0,7.0,98,0.00,,,0.00,Rainwise IP-100,2013-06-01 11:19:00,
2013-06-01 06:24:00,63.0,62.5,29.96,ESE,112,1.0,7.0,98,0.00,,,0.00,Rainwise IP-100,2013-06-01 11:24:00,
2013-06-01 06:29:00,63.0,62.5,29.96,SE,135,6.0,11.0,98,0.00,,,0.00,Rainwise IP-100,2013-06-01 11:29:00,
2013-06-01 06:34:00,63.0,62.5,29.95,East,90,2.0,9.0,98,0.00,,,0.00,Rainwise IP-100,2013-06-01 11:34:00,
2013-06-01 06:39:00,63.0,62.5,29.95,South,180,3.0,10.0,98,0.00,,,0.00,Rainwise IP-100,2013-06-01 11:39:00,
2013-06-01 06:44:00,63.0,62.5,29.96,South,180,3.0,7.0,98,0.00,,,0.00,Rainwise IP-100,2013-06-01 11:44:00,
2013-06-01 06:49:00,63.0,62.5,29.96,SSE,157,7.0,7.0,98,0.00,,,0.00,Rainwise IP-100,2013-06-01 11:49:00,
2013-06-01 06:54:00,63.0,62.5,29.95,East,90,3.0,7.0,98,0.00,,,0.00,Rainwise IP-100,2013-06-01 11:54:00,
2013-06-01 06:59:00,63.0,62.5,29.95,ENE,67,4.0,8.0,98,0.00,,,0.00,Rainwise IP-100,2013-06-01 11:59:00,
2013-06-01 07:04:00,63.0,62.5,29.94,SE,135,1.0,10.0,98,0.00,,,0.00,Rainwise IP-100,2013-06-01 12:04:00,
2013-06-01 07:09:00,63.0,62.5,29.94,ESE,112,1.0,10.0,98,0.00,,,0.00,Rainwise IP-100,2013-06-01 12:09:00,
2013-06-01 07:14:00,63.0,62.5,29.94,SSE,157,3.0,7.0,98,0.00,,,0.00,Rainwise IP-100,2013-06-01 12:14:00,
2013-06-01 07:19:00,63.0,62.5,29.94,SE,135,2.0,10.0,98,0.06,,,0.01,Rainwise IP-100,2013-06-01 12:19:00,
2013-06-01 07:24:00,63.0,62.5,29.94,SW,225,2.0,12.0,98,0.06,,,0.01,Rainwise IP-100,2013-06-01 12:24:00,
2013-06-01 07:29:00,63.0,62.5,29.94,North,360,0.0,10.0,98,0.00,,,0.01,Rainwise IP-100,2013-06-01 12:29:00,
2013-06-01 07:34:00,63.0,62.5,29.95,NE,45,0.0,9.0,98,0.00,,,0.01,Rainwise IP-100,2013-06-01 12:34:00,
2013-06-01 07:39:00,63.0,62.5,29.95,SSE,157,7.0,10.0,98,0.00,,,0.01,Rainwise IP-100,2013-06-01 12:39:00,
2013-06-01 07:44:00,63.0,62.5,29.95,SE,135,9.0,9.0,98,0.00,,,0.01,Rainwise IP-100,2013-06-01 12:44:00,
2013-06-01 07:49:00,63.0,62.5,29.95,NE,45,7.0,12.0,98,0.00,,,0.01,Rainwise IP-100,2013-06-01 12:49:00,
2013-06-01 07:54:00,63.0,62.5,29.94,SW,225,4.0,12.0,98,0.00,,,0.01,Rainwise IP-100,2013-06-01 12:54:00,
2013-06-01 07:59:00,63.0,62.5,29.94,East,90,4.0,7.0,98,0.00,,,0.01,Rainwise IP-100,2013-06-01 12:59:00,
2013-06-01 08:04:00,63.0,62.5,29.95,SSE,157,5.0,11.0,98,0.00,,,0.01,Rainwise IP-100,2013-06-01 13:04:00,
2013-06-01 08:09:00,63.0,62.5,29.95,ESE,112,7.0,10.0,98,0.00,,,0.01,Rainwise IP-100,2013-06-01 13:09:00,
2013-06-01 08:14:00,63.0,62.5,29.95,East,90,2.0,11.0,98,0.00,,,0.01,Rainwise IP-100,2013-06-01 13:14:00,
2013-06-01 08:19:00,63.0,62.5,29.95,NE,45,9.0,9.0,98,0.00,,,0.01,Rainwise IP-100,2013-06-01 13:19:00,
2013-06-01 08:25:00,63.0,62.5,29.95,SW,225,3.0,11.0,98,0.00,,,0.01,Rainwise IP-100,2013-06-01 13:25:00,
2013-06-01 08:30:00,63.0,62.5,29.95,SW,225,3.0,9.0,98,0.00,,,0.01,Rainwise IP-100,2013-06-01 13:30:00,
2013-06-01 08:35:00,63.0,62.5,29.98,SW,225,1.0,6.0,98,0.00,,,0.01,Rainwise IP-100,2013-06-01 13:35:00,
2013-06-01 08:40:00,63.0,62.5,29.98,SW,225,0.0,6.0,98,0.00,,,0.01,Rainwise IP-100,2013-06-01 13:40:00,
2013-06-01 08:45:00,63.0,62.5,29.98,SW,225,3.0,6.0,98,0.00,,,0.01,Rainwise IP-100,2013-06-01 13:45:00,
2013-06-01 08:50:00,63.0,62.5,29.98,WSW,247,0.0,3.0,98,0.00,,,0.01,Rainwise IP-100,2013-06-01 13:50:00,
2013-06-01 08:55:00,63.0,62.5,29.98,ESE,112,2.0,6.0,98,0.00,,,0.01,Rainwise IP-100,2013-06-01 13:55:00,
2013-06-01 09:00:00,63.0,62.5,29.98,ESE,112,5.0,7.0,98,0.00,,,0.01,Rainwise IP-100,2013-06-01 14:00:00,
2013-06-01 09:05:00,63.0,62.5,29.98,SE,135,3.0,7.0,98,0.00,,,0.01,Rainwise IP-100,2013-06-01 14:05:00,
2013-06-01 09:10:00,63.0,62.5,29.98,South,180,1.0,7.0,98,0.00,,,0.01,Rainwise IP-100,2013-06-01 14:10:00,
2013-06-01 09:15:00,63.0,62.5,29.97,WSW,247,0.0,6.0,98,0.00,,,0.01,Rainwise IP-100,2013-06-01 14:15:00,
2013-06-01 09:20:00,63.0,62.5,29.97,East,90,1.0,7.0,98,0.00,,,0.01,Rainwise IP-100,2013-06-01 14:20:00,
2013-06-01 09:25:00,63.0,62.5,29.96,ESE,112,2.0,7.0,98,0.00,,,0.01,Rainwise IP-100,2013-06-01 14:25:00,
2013-06-01 09:30:00,63.0,62.5,29.96,East,90,4.0,9.0,98,0.00,,,0.01,Rainwise IP-100,2013-06-01 14:30:00,
2013-06-01 09:35:00,63.0,62.5,29.95,East,90,3.0,8.0,98,0.00,,,0.01,Rainwise IP-100,2013-06-01 14:35:00,
2013-06-01 09:40:00,63.0,62.5,29.95,North,360,0.0,6.0,98,0.00,,,0.01,Rainwise IP-100,2013-06-01 14:40:00,
2013-06-01 09:45:00,64.0,63.5,29.96,SE,135,4.0,8.0,98,0.00,,,0.01,Rainwise IP-100,2013-06-01 14:45:00,
2013-06-01 09:50:00,64.0,63.5,29.96,ENE,67,6.0,8.0,98,0.00,,,0.01,Rainwise IP-100,2013-06-01 14:50:00,
2013-06-01 09:55:00,64.0,63.5,29.95,ENE,67,6.0,8.0,98,0.00,,,0.01,Rainwise IP-100,2013-06-01 14:55:00,
2013-06-01 10:00:00,64.0,63.5,29.95,ENE,67,0.0,7.0,98,0.00,,,0.01,Rainwise IP-100,2013-06-01 15:00:00,
2013-06-01 10:05:00,64.0,63.5,29.94,ENE,67,2.0,7.0,98,0.00,,,0.01,Rainwise IP-100,2013-06-01 15:05:00,
2013-06-01 10:10:00,64.0,63.5,29.94,SE,135,2.0,6.0,98,0.00,,,0.01,Rainwise IP-100,2013-06-01 15:10:00,
2013-06-01 10:15:00,64.0,63.5,29.94,NE,45,3.0,6.0,98,0.00,,,0.01,Rainwise IP-100,2013-06-01 15:15:00,
2013-06-01 10:20:00,64.0,63.5,29.94,NE,45,1.0,9.0,98,0.00,,,0.01,Rainwise IP-100,2013-06-01 15:20:00,
2013-06-01 10:25:00,64.0,63.5,29.93,South,180,2.0,7.0,98,0.00,,,0.01,Rainwise IP-100,2013-06-01 15:25:00,
2013-06-01 10:30:00,64.0,63.5,29.93,ENE,67,0.0,9.0,98,0.00,,,0.01,Rainwise IP-100,2013-06-01 15:30:00,
2013-06-01 10:35:00,64.0,63.5,29.93,East,90,0.0,8.0,98,0.06,,,0.02,Rainwise IP-100,2013-06-01 15:35:00,
2013-06-01 10:40:00,64.0,63.5,29.93,ESE,112,6.0,7.0,98,0.06,,,0.02,Rainwise IP-100,2013-06-01 15:40:00,
2013-06-01 10:45:00,64.0,63.5,29.93,NE,45,6.0,7.0,98,0.00,,,0.02,Rainwise IP-100,2013-06-01 15:45:00,
2013-06-01 10:50:00,64.0,63.5,29.93,NE,45,0.0,7.0,98,0.00,,,0.02,Rainwise IP-100,2013-06-01 15:50:00,
2013-06-01 10:55:00,64.0,63.5,29.93,ENE,67,0.0,7.0,98,0.00,,,0.02,Rainwise IP-100,2013-06-01 15:55:00,
2013-06-01 11:00:00,65.0,64.5,29.93,SW,225,0.0,3.0,99,0.00,,,0.02,Rainwise IP-100,2013-06-01 16:00:00,
2013-06-01 11:05:00,65.0,64.5,29.94,East,90,2.0,6.0,99,0.00,,,0.02,Rainwise IP-100,2013-06-01 16:05:00,
2013-06-01 11:10:00,65.0,64.5,29.94,South,180,0.0,9.0,99,0.00,,,0.02,Rainwise IP-100,2013-06-01 16:10:00,
2013-06-01 11:15:00,65.0,64.5,29.93,South,180,0.0,5.0,99,0.06,,,0.03,Rainwise IP-100,2013-06-01 16:15:00,
2013-06-01 11:20:00,65.0,64.5,29.93,NE,45,1.0,6.0,99,0.06,,,0.03,Rainwise IP-100,2013-06-01 16:20:00,
2013-06-01 11:25:00,66.0,65.5,29.92,East,90,0.0,6.0,99,0.00,,,0.03,Rainwise IP-100,2013-06-01 16:25:00,
2013-06-01 11:30:00,66.0,65.5,29.92,East,90,4.0,7.0,99,0.00,,,0.03,Rainwise IP-100,2013-06-01 16:30:00,
2013-06-01 11:35:00,66.0,65.5,29.93,SSW,202,1.0,5.0,99,0.00,,,0.03,Rainwise IP-100,2013-06-01 16:35:00,
2013-06-01 11:40:00,66.0,65.5,29.93,NW,315,2.0,4.0,99,0.00,,,0.03,Rainwise IP-100,2013-06-01 16:40:00,
2013-06-01 11:45:00,66.0,65.5,29.93,NW,315,0.0,3.0,99,0.00,,,0.03,Rainwise IP-100,2013-06-01 16:45:00,
2013-06-01 11:50:00,66.0,65.5,29.93,NW,315,1.0,0.0,99,0.00,,,0.03,Rainwise IP-100,2013-06-01 16:50:00,
2013-06-01 11:55:00,66.0,65.5,29.94,NW,315,0.0,2.0,99,0.00,,,0.03,Rainwise IP-100,2013-06-01 16:55:00,
2013-06-01 12:00:00,66.0,65.5,29.94,NW,315,0.0,0.0,99,0.00,,,0.03,Rainwise IP-100,2013-06-01 17:00:00,
2013-06-01 12:05:00,66.0,65.5,29.94,NW,315,0.0,1.0,99,0.00,,,0.03,Rainwise IP-100,2013-06-01 17:05:00,
2013-06-01 12:10:00,66.0,65.5,29.94,NW,315,0.0,0.0,99,0.00,,,0.03,Rainwise IP-100,2013-06-01 17:10:00,
2013-06-01 12:15:00,66.0,65.5,29.95,East,90,2.0,4.0,99,0.00,,,0.03,Rainwise IP-100,2013-06-01 17:15:00,
2013-06-01 12:20:00,66.0,65.5,29.95,ESE,112,3.0,6.0,99,0.00,,,0.03,Rainwise IP-100,2013-06-01 17:20:00,
2013-06-01 12:25:00,66.0,65.5,29.94,South,180,2.0,4.0,99,0.00,,,0.03,Rainwise IP-100,2013-06-01 17:25:00,
2013-06-01 12:30:00,66.0,65.5,29.94,ESE,112,0.0,4.0,99,0.00,,,0.03,Rainwise IP-100,2013-06-01 17:30:00,
2013-06-01 12:35:00,66.0,65.5,29.93,East,90,1.0,4.0,99,0.00,,,0.03,Rainwise IP-100,2013-06-01 17:35:00,
2013-06-01 12:40:00,66.0,65.5,29.93,East,90,0.0,2.0,99,0.00,,,0.03,Rainwise IP-100,2013-06-01 17:40:00,
2013-06-01 12:45:00,66.0,65.5,29.93,East,90,2.0,3.0,99,0.00,,,0.03,Rainwise IP-100,2013-06-01 17:45:00,
2013-06-01 12:50:00,66.0,65.5,29.93,South,180,5.0,6.0,99,0.00,,,0.03,Rainwise IP-100,2013-06-01 17:50:00,
2013-06-01 12:55:00,66.0,65.5,29.93,South,180,6.0,6.0,99,0.00,,,0.03,Rainwise IP-100,2013-06-01 17:55:00,
2013-06-01 13:00:00,67.0,66.7,29.93,ENE,67,2.0,6.0,99,0.00,,,0.03,Rainwise IP-100,2013-06-01 18:00:00,
2013-06-01 13:05:00,67.0,66.7,29.91,SW,225,2.0,4.0,99,0.06,,,0.04,Rainwise IP-100,2013-06-01 18:05:00,
2013-06-01 13:10:00,67.0,66.7,29.91,NW,315,1.0,4.0,99,0.06,,,0.04,Rainwise IP-100,2013-06-01 18:10:00,
2013-06-01 13:15:00,67.0,66.7,29.90,South,180,4.0,6.0,99,0.00,,,0.04,Rainwise IP-100,2013-06-01 18:15:00,
2013-06-01 13:20:00,67.0,66.7,29.90,ENE,67,5.0,7.0,99,0.00,,,0.04,Rainwise IP-100,2013-06-01 18:20:00,
2013-06-01 13:25:00,68.0,67.5,29.89,ENE,67,1.0,6.0,99,0.00,,,0.04,Rainwise IP-100,2013-06-01 18:25:00,
2013-06-01 13:30:00,68.0,67.5,29.89,SSE,157,4.0,10.0,99,0.00,,,0.04,Rainwise IP-100,2013-06-01 18:30:00,
2013-06-01 13:35:00,67.0,66.7,29.89,ESE,112,8.0,9.0,99,0.00,,,0.04,Rainwise IP-100,2013-06-01 18:35:00,
2013-06-01 13:40:00,67.0,66.7,29.89,WSW,247,7.0,8.0,99,0.00,,,0.04,Rainwise IP-100,2013-06-01 18:40:00,
2013-06-01 13:45:00,67.0,66.7,29.91,South,180,6.0,10.0,99,0.00,,,0.04,Rainwise IP-100,2013-06-01 18:45:00,
2013-06-01 13:50:00,67.0,66.7,29.91,South,180,6.0,9.0,99,0.00,,,0.04,Rainwise IP-100,2013-06-01 18:50:00,
2013-06-01 13:55:00,67.0,66.7,29.90,SSW,202,5.0,7.0,99,0.00,,,0.04,Rainwise IP-100,2013-06-01 18:55:00,
2013-06-01 14:00:00,67.0,66.7,29.90,SSE,157,5.0,9.0,99,0.00,,,0.04,Rainwise IP-100,2013-06-01 19:00:00,
2013-06-01 14:05:00,67.0,66.7,29.89,SE,135,2.0,9.0,99,0.00,,,0.04,Rainwise IP-100,2013-06-01 19:05:00,
2013-06-01 14:10:00,68.0,67.5,29.89,East,90,6.0,10.0,99,0.00,,,0.04,Rainwise IP-100,2013-06-01 19:10:00,
2013-06-01 14:15:00,68.0,67.5,29.87,North,360,1.0,8.0,99,0.00,,,0.04,Rainwise IP-100,2013-06-01 19:15:00,
2013-06-01 14:20:00,68.0,67.5,29.87,WNW,292,0.0,7.0,99,0.00,,,0.04,Rainwise IP-100,2013-06-01 19:20:00,
2013-06-01 14:25:00,68.0,67.5,29.86,SSW,202,6.0,9.0,99,0.00,,,0.04,Rainwise IP-100,2013-06-01 19:25:00,
2013-06-01 14:30:00,68.0,67.5,29.86,SW,225,5.0,10.0,99,0.06,,,0.05,Rainwise IP-100,2013-06-01 19:30:00,
2013-06-01 14:35:00,68.0,67.5,29.86,SSE,157,5.0,12.0,99,0.06,,,0.05,Rainwise IP-100,2013-06-01 19:35:00,
2013-06-01 14:40:00,68.0,67.5,29.86,SE,135,6.0,10.0,99,0.00,,,0.05,Rainwise IP-100,2013-06-01 19:40:00,
2013-06-01 14:45:00,69.0,68.5,29.86,South,180,4.0,9.0,99,0.00,,,0.05,Rainwise IP-100,2013-06-01 19:45:00,
2013-06-01 14:50:00,69.0,68.5,29.86,West,270,3.0,6.0,99,0.00,,,0.05,Rainwise IP-100,2013-06-01 19:50:00,
2013-06-01 14:55:00,69.0,68.5,29.87,SE,135,4.0,9.0,99,0.00,,,0.05,Rainwise IP-100,2013-06-01 19:55:00,
2013-06-01 15:00:00,69.0,68.5,29.87,South,180,7.0,9.0,98,0.00,,,0.05,Rainwise IP-100,2013-06-01 20:00:00,
2013-06-01 15:05:00,69.0,68.0,29.87,SE,135,3.0,10.0,97,0.00,,,0.05,Rainwise IP-100,2013-06-01 20:05:00,
2013-06-01 15:10:00,69.0,68.5,29.87,SW,225,6.0,9.0,98,0.00,,,0.05,Rainwise IP-100,2013-06-01 20:10:00,
2013-06-01 15:15:00,68.0,67.5,29.87,SSW,202,7.0,8.0,98,0.00,,,0.05,Rainwise IP-100,2013-06-01 20:15:00,
2013-06-01 15:20:00,68.0,67.5,29.87,SSW,202,6.0,13.0,98,0.00,,,0.05,Rainwise IP-100,2013-06-01 20:20:00,
2013-06-01 15:25:00,68.0,67.5,29.86,SW,225,3.0,10.0,99,0.00,,,0.05,Rainwise IP-100,2013-06-01 20:25:00,
2013-06-01 15:30:00,68.0,67.5,29.86,SW,225,5.0,8.0,99,0.00,,,0.05,Rainwise IP-100,2013-06-01 20:30:00,
2013-06-01 15:35:00,68.0,67.5,29.84,West,270,2.0,11.0,99,0.00,,,0.05,Rainwise IP-100,2013-06-01 20:35:00,
2013-06-01 15:40:00,68.0,67.5,29.84,SSE,157,6.0,13.0,99,0.00,,,0.05,Rainwise IP-100,2013-06-01 20:40:00,
2013-06-01 15:45:00,68.0,67.5,29.78,ESE,112,4.0,9.0,99,0.00,,,0.05,Rainwise IP-100,2013-06-01 20:45:00,
2013-06-01 15:50:00,68.0,67.5,29.78,SSW,202,7.0,12.0,99,0.00,,,0.05,Rainwise IP-100,2013-06-01 20:50:00,
2013-06-01 15:55:00,68.0,67.5,29.77,East,90,5.0,11.0,99,0.00,,,0.05,Rainwise IP-100,2013-06-01 20:55:00,
2013-06-01 16:00:00,68.0,67.5,29.77,East,90,2.0,12.0,98,0.00,,,0.05,Rainwise IP-100,2013-06-01 21:00:00,
2013-06-01 16:05:00,68.0,66.7,29.76,SW,225,3.0,13.0,96,0.00,,,0.05,Rainwise IP-100,2013-06-01 21:05:00,
2013-06-01 16:10:00,68.0,67.0,29.76,West,270,6.0,9.0,97,0.00,,,0.05,Rainwise IP-100,2013-06-01 21:10:00,
2013-06-01 16:15:00,68.0,66.7,29.77,SE,135,8.0,11.0,96,0.00,,,0.05,Rainwise IP-100,2013-06-01 21:15:00,
2013-06-01 16:20:00,68.0,66.7,29.77,West,270,7.0,12.0,96,0.00,,,0.05,Rainwise IP-100,2013-06-01 21:20:00,
2013-06-01 16:25:00,68.0,66.7,29.77,SE,135,2.0,12.0,96,0.00,,,0.05,Rainwise IP-100,2013-06-01 21:25:00,
2013-06-01 16:30:00,69.0,67.5,29.77,South,180,4.0,9.0,96,0.00,,,0.05,Rainwise IP-100,2013-06-01 21:30:00,
2013-06-01 16:35:00,69.0,67.0,29.77,WNW,292,0.0,8.0,95,0.00,,,0.05,Rainwise IP-100,2013-06-01 21:35:00,
2013-06-01 16:40:00,69.0,68.0,29.77,West,270,6.0,9.0,97,0.00,,,0.05,Rainwise IP-100,2013-06-01 21:40:00,
2013-06-01 16:45:00,69.0,68.0,29.82,SE,135,6.0,17.0,97,0.00,,,0.05,Rainwise IP-100,2013-06-01 21:45:00,
2013-06-01 16:50:00,69.0,67.5,29.82,WNW,292,5.0,9.0,96,0.00,,,0.05,Rainwise IP-100,2013-06-01 21:50:00,
2013-06-01 16:55:00,69.0,68.0,29.82,East,90,1.0,11.0,97,0.00,,,0.05,Rainwise IP-100,2013-06-01 21:55:00,
2013-06-01 17:00:00,69.0,67.5,29.82,West,270,4.0,10.0,96,0.00,,,0.05,Rainwise IP-100,2013-06-01 22:00:00,
2013-06-01 17:05:00,70.0,69.0,29.82,SSE,157,3.0,7.0,96,0.00,,,0.05,Rainwise IP-100,2013-06-01 22:05:00,
2013-06-01 17:10:00,70.0,69.0,29.82,SW,225,1.0,4.0,96,0.00,,,0.05,Rainwise IP-100,2013-06-01 22:10:00,
2013-06-01 17:15:00,70.0,68.5,29.83,West,270,7.0,7.0,95,0.00,,,0.05,Rainwise IP-100,2013-06-01 22:15:00,
2013-06-01 17:20:00,70.0,68.5,29.83,NNE,22,0.0,8.0,95,0.00,,,0.05,Rainwise IP-100,2013-06-01 22:20:00,
2013-06-01 17:25:00,70.0,68.5,29.82,West,270,2.0,6.0,94,0.00,,,0.05,Rainwise IP-100,2013-06-01 22:25:00,
2013-06-01 17:30:00,70.0,68.5,29.82,SW,225,0.0,4.0,94,0.00,,,0.05,Rainwise IP-100,2013-06-01 22:30:00,
2013-06-01 17:35:00,70.0,68.5,29.82,South,180,2.0,5.0,94,0.00,,,0.05,Rainwise IP-100,2013-06-01 22:35:00,
2013-06-01 17:40:00,70.0,68.0,29.82,ESE,112,0.0,5.0,93,0.00,,,0.05,Rainwise IP-100,2013-06-01 22:40:00,
2013-06-01 17:45:00,70.0,68.0,29.81,SW,225,0.0,4.0,93,0.00,,,0.05,Rainwise IP-100,2013-06-01 22:45:00,
2013-06-01 17:50:00,71.0,69.3,29.81,SW,225,0.0,0.0,95,0.00,,,0.05,Rainwise IP-100,2013-06-01 22:50:00,
2013-06-01 17:55:00,71.0,69.3,29.81,SSE,157,2.0,3.0,95,0.00,,,0.05,Rainwise IP-100,2013-06-01 22:55:00,
2013-06-01 18:00:00,71.0,69.0,29.81,SSW,202,2.0,3.0,93,0.00,,,0.05,Rainwise IP-100,2013-06-01 23:00:00,
2013-06-01 18:05:00,70.0,67.5,29.81,South,180,5.0,5.0,92,0.00,,,0.05,Rainwise IP-100,2013-06-01 23:05:00,
2013-06-01 18:10:00,71.0,69.0,29.81,South,180,2.0,5.0,93,0.00,,,0.05,Rainwise IP-100,2013-06-01 23:10:00,
2013-06-01 18:15:00,71.0,69.0,29.82,South,180,2.0,5.0,93,0.00,,,0.05,Rainwise IP-100,2013-06-01 23:15:00,
2013-06-01 18:20:00,71.0,69.0,29.82,South,180,0.0,5.0,93,0.00,,,0.05,Rainwise IP-100,2013-06-01 23:20:00,
2013-06-01 18:25:00,71.0,69.0,29.83,SW,225,0.0,4.0,93,0.00,,,0.05,Rainwise IP-100,2013-06-01 23:25:00,
2013-06-01 18:30:00,71.0,69.0,29.83,ESE,112,0.0,5.0,93,0.00,,,0.05,Rainwise IP-100,2013-06-01 23:30:00,
2013-06-01 18:35:00,70.0,67.0,29.83,SSE,157,0.0,5.0,90,0.06,,,0.06,Rainwise IP-100,2013-06-01 23:35:00,
2013-06-01 18:40:00,71.0,69.0,29.83,NW,315,0.0,6.0,94,0.06,,,0.06,Rainwise IP-100,2013-06-01 23:40:00,
2013-06-01 18:45:00,72.0,70.0,29.81,WSW,247,0.0,3.0,94,0.00,,,0.06,Rainwise IP-100,2013-06-01 23:45:00,
2013-06-01 18:50:00,72.0,69.3,29.81,WSW,247,1.0,5.0,91,0.00,,,0.06,Rainwise IP-100,2013-06-01 23:50:00,
2013-06-01 18:55:00,71.0,68.0,29.82,SW,225,3.0,6.0,91,0.00,,,0.06,Rainwise IP-100,2013-06-01 23:55:00,
2013-06-01 19:00:00,71.0,68.5,29.82,SW,225,0.0,5.0,92,0.00,,,0.06,Rainwise IP-100,2013-06-02 00:00:00,
2013-06-01 19:05:00,70.0,67.5,29.83,ENE,67,1.0,4.0,92,0.00,,,0.06,Rainwise IP-100,2013-06-02 00:05:00,
2013-06-01 19:10:00,70.0,68.0,29.83,SE,135,0.0,5.0,93,0.00,,,0.06,Rainwise IP-100,2013-06-02 00:10:00,
2013-06-01 19:15:00,70.0,68.0,29.83,SE,135,0.0,2.0,93,0.00,,,0.06,Rainwise IP-100,2013-06-02 00:15:00,
2013-06-01 19:20:00,70.0,68.5,29.83,WSW,247,0.0,2.0,94,0.00,,,0.06,Rainwise IP-100,2013-06-02 00:20:00,
2013-06-01 19:25:00,70.0,68.5,29.83,SW,225,0.0,5.0,94,0.00,,,0.06,Rainwise IP-100,2013-06-02 00:25:00,
2013-06-01 19:30:00,69.0,67.0,29.83,SW,225,2.0,2.0,94,0.00,,,0.06,Rainwise IP-100,2013-06-02 00:30:00,
2013-06-01 19:35:00,69.0,67.0,29.82,SW,225,0.0,3.0,95,0.00,,,0.06,Rainwise IP-100,2013-06-02 00:35:00,
2013-06-01 19:40:00,69.0,67.5,29.82,SW,225,0.0,2.0,96,0.00,,,0.06,Rainwise IP-100,2013-06-02 00:40:00,
2013-06-01 19:45:00,68.0,66.7,29.83,SW,225,0.0,0.0,96,0.00,,,0.06,Rainwise IP-100,2013-06-02 00:45:00,
2013-06-01 19:50:00,68.0,67.0,29.83,SW,225,0.0,2.0,97,0.00,,,0.06,Rainwise IP-100,2013-06-02 00:50:00,
2013-06-01 19:55:00,68.0,67.0,29.83,SW,225,0.0,2.0,97,0.00,,,0.06,Rainwise IP-100,2013-06-02 00:55:00,
2013-06-01 20:00:00,68.0,67.0,29.83,SW,225,0.0,0.0,97,0.00,,,0.06,Rainwise IP-100,2013-06-02 01:00:00,
2013-06-01 20:05:00,68.0,67.5,29.83,SW,225,0.0,0.0,98,0.00,,,0.06,Rainwise IP-100,2013-06-02 01:05:00,
2013-06-01 20:10:00,67.0,66.7,29.83,SW,225,0.0,0.0,98,0.00,,,0.06,Rainwise IP-100,2013-06-02 01:10:00,
2013-06-01 20:15:00,67.0,66.7,29.83,SW,225,1.0,1.0,98,0.00,,,0.06,Rainwise IP-100,2013-06-02 01:15:00,
2013-06-01 20:20:00,67.0,66.7,29.83,SW,225,0.0,3.0,99,0.00,,,0.06,Rainwise IP-100,2013-06-02 01:20:00,
2013-06-01 20:25:00,67.0,66.7,29.83,SW,225,1.0,3.0,99,0.00,,,0.06,Rainwise IP-100,2013-06-02 01:25:00,
2013-06-01 20:30:00,67.0,66.7,29.83,South,180,0.0,3.0,99,0.00,,,0.06,Rainwise IP-100,2013-06-02 01:30:00,
2013-06-01 20:35:00,67.0,66.7,29.84,South,180,0.0,1.0,99,0.00,,,0.06,Rainwise IP-100,2013-06-02 01:35:00,
2013-06-01 20:40:00,67.0,66.7,29.84,SW,225,3.0,3.0,99,0.00,,,0.06,Rainwise IP-100,2013-06-02 01:40:00,
2013-06-01 20:45:00,67.0,66.7,29.84,SW,225,2.0,5.0,99,0.00,,,0.06,Rainwise IP-100,2013-06-02 01:45:00,
2013-06-01 20:50:00,67.0,66.7,29.84,WSW,247,3.0,5.0,99,0.00,,,0.06,Rainwise IP-100,2013-06-02 01:50:00,
2013-06-01 20:55:00,67.0,66.7,29.85,WSW,247,3.0,4.0,99,0.00,,,0.06,Rainwise IP-100,2013-06-02 01:55:00,
2013-06-01 21:00:00,66.0,65.5,29.85,SW,225,0.0,3.0,99,0.00,,,0.06,Rainwise IP-100,2013-06-02 02:00:00,
2013-06-01 21:05:00,67.0,66.7,29.85,South,180,2.0,2.0,99,0.00,,,0.06,Rainwise IP-100,2013-06-02 02:05:00,
2013-06-01 21:10:00,66.0,65.5,29.85,SSW,202,1.0,7.0,99,0.00,,,0.06,Rainwise IP-100,2013-06-02 02:10:00,
2013-06-01 21:15:00,66.0,65.5,29.85,SSW,202,1.0,2.0,99,0.00,,,0.06,Rainwise IP-100,2013-06-02 02:15:00,
2013-06-01 21:20:00,66.0,65.5,29.85,ENE,67,0.0,4.0,99,0.00,,,0.06,Rainwise IP-100,2013-06-02 02:20:00,
2013-06-01 21:25:00,66.0,65.5,29.87,SW,225,0.0,2.0,99,0.00,,,0.06,Rainwise IP-100,2013-06-02 02:25:00,
2013-06-01 21:31:00,66.0,65.5,29.87,South,180,0.0,1.0,99,0.00,,,0.06,Rainwise IP-100,2013-06-02 02:31:00,
2013-06-01 21:36:00,66.0,65.5,29.87,South,180,0.0,4.0,99,0.00,,,0.06,Rainwise IP-100,2013-06-02 02:36:00,
2013-06-01 21:41:00,66.0,65.5,29.87,SW,225,1.0,4.0,99,0.00,,,0.06,Rainwise IP-100,2013-06-02 02:41:00,
2013-06-01 21:46:00,66.0,65.5,29.88,SSW,202,0.0,5.0,99,0.00,,,0.06,Rainwise IP-100,2013-06-02 02:46:00,
2013-06-01 21:51:00,66.0,65.5,29.88,South,180,3.0,4.0,99,0.00,,,0.06,Rainwise IP-100,2013-06-02 02:51:00,
2013-06-01 21:56:00,66.0,65.5,29.88,SSW,202,1.0,5.0,99,0.00,,,0.06,Rainwise IP-100,2013-06-02 02:56:00,
2013-06-01 22:01:00,66.0,65.5,29.88,SW,225,2.0,7.0,99,0.00,,,0.06,Rainwise IP-100,2013-06-02 03:01:00,
2013-06-01 22:06:00,66.0,65.5,29.88,South,180,0.0,5.0,99,0.00,,,0.06,Rainwise IP-100,2013-06-02 03:06:00,
2013-06-01 22:11:00,66.0,65.5,29.88,South,180,4.0,4.0,99,0.00,,,0.06,Rainwise IP-100,2013-06-02 03:11:00,
2013-06-01 22:16:00,66.0,65.5,29.88,South,180,1.0,8.0,99,0.00,,,0.06,Rainwise IP-100,2013-06-02 03:16:00,
2013-06-01 22:21:00,66.0,65.5,29.88,SW,225,2.0,7.0,99,0.00,,,0.06,Rainwise IP-100,2013-06-02 03:21:00,
2013-06-01 22:26:00,66.0,65.5,29.89,SW,225,2.0,7.0,99,0.00,,,0.07,Rainwise IP-100,2013-06-02 03:26:00,
2013-06-01 22:31:00,66.0,65.5,29.89,SSW,202,5.0,7.0,99,0.06,,,0.07,Rainwise IP-100,2013-06-02 03:31:00,
2013-06-01 22:36:00,66.0,65.5,29.88,SW,225,7.0,7.0,99,0.06,,,0.07,Rainwise IP-100,2013-06-02 03:36:00,
2013-06-01 22:41:00,66.0,65.5,29.88,SSW,202,0.0,9.0,99,0.00,,,0.07,Rainwise IP-100,2013-06-02 03:41:00,
2013-06-01 22:46:00,66.0,65.5,29.89,SSE,157,1.0,7.0,99,0.00,,,0.07,Rainwise IP-100,2013-06-02 03:46:00,
2013-06-01 22:51:00,66.0,65.5,29.89,South,180,1.0,8.0,99,0.00,,,0.07,Rainwise IP-100,2013-06-02 03:51:00,
2013-06-01 22:56:00,66.0,65.5,29.89,SW,225,6.0,7.0,99,0.00,,,0.07,Rainwise IP-100,2013-06-02 03:56:00,
2013-06-01 23:01:00,66.0,65.5,29.89,SSW,202,3.0,7.0,99,0.00,,,0.07,Rainwise IP-100,2013-06-02 04:01:00,
2013-06-01 23:06:00,66.0,65.5,29.90,South,180,2.0,6.0,99,0.00,,,0.07,Rainwise IP-100,2013-06-02 04:06:00,
2013-06-01 23:11:00,66.0,65.5,29.90,SSW,202,1.0,6.0,99,0.00,,,0.07,Rainwise IP-100,2013-06-02 04:11:00,
2013-06-01 23:16:00,66.0,65.5,29.90,SW,225,2.0,6.0,99,0.00,,,0.07,Rainwise IP-100,2013-06-02 04:16:00,
2013-06-01 23:21:00,66.0,65.5,29.90,SSW,202,0.0,5.0,99,0.00,,,0.07,Rainwise IP-100,2013-06-02 04:21:00,
2013-06-01 23:26:00,66.0,65.5,29.90,SSW,202,1.0,6.0,99,0.00,,,0.07,Rainwise IP-100,2013-06-02 04:26:00,
2013-06-01 23:31:00,66.0,65.5,29.90,SW,225,6.0,8.0,99,0.00,,,0.07,Rainwise IP-100,2013-06-02 04:31:00,
2013-06-01 23:36:00,66.0,65.5,29.89,SW,225,2.0,8.0,99,0.00,,,0.07,Rainwise IP-100,2013-06-02 04:36:00,
2013-06-01 23:41:00,66.0,65.5,29.89,South,180,0.0,6.0,99,0.00,,,0.07,Rainwise IP-100,2013-06-02 04:41:00,
2013-06-01 23:46:00,66.0,65.5,29.89,SW,225,1.0,7.0,99,0.00,,,0.07,Rainwise IP-100,2013-06-02 04:46:00,
2013-06-01 23:51:00,66.0,65.5,29.89,WSW,247,1.0,4.0,99,0.00,,,0.07,Rainwise IP-100,2013-06-02 04:51:00,
2013-06-01 23:56:00,66.0,65.5,29.89,SW,225,0.0,4.0,99,0.00,,,0.07,Rainwise IP-100,2013-06-02 04:56:00,